Weather History for KIMT - October, 2011

Change the Weather History Date:

Wednesday, October 19, 2011

  Actual Average Record
Temperature  
Mean Temperature 40 °F -  
Max Temperature 48 °F 52 °F 77 °F (1953)
Min Temperature 33 °F 31 °F 14 °F (1972)
Degree Days  
Heating Degree Days 24    
Moisture  
Dew Point 35 °F    
Average Humidity 81    
Maximum Humidity 96    
Minimum Humidity 61    
Precipitation  
Precipitation 0.00 in - - ()
Sea Level Pressure  
Sea Level Pressure 29.96 in    
Wind  
Wind Speed 9 mph (North)    
Max Wind Speed 21 mph    
Max Gust Speed 30 mph    
Visibility 10 miles    
Events Rain    
Averages and records for this station are not official NWS values.
T = Trace of Precipitation, MM = Missing Value Source: NWS Daily Summary

Daily Weather History Graph

Daily Weather History Graph

Search for Another Location

Airport or City:

Trip Planner

Search our weather history database for the weather conditions in past years. The results will help you decide how hot, cold, wet, or windy it might be!

Date:

Astronomy

Oct. 19, 2011 Rise Set
Actual Time 7:14 AM CDT 5:59 PM CDT
Civil Twilight 6:43 AM CDT 6:30 PM CDT
Nautical Twilight 6:09 AM CDT 7:04 PM CDT
Astronomical Twilight 5:34 AM CDT 7:39 PM CDT
Moon 11:37 PM CDT (10/19) 1:53 PM CDT (10/19)
Length of Visible Light 11h 46m
Length of Day
10h 45m
Waning Gibbous, 54% of the Moon is Illuminated
Oct 19
Waning Gibbous
Oct 19
Last Quarter
Oct 26
New
Nov 2
First Quarter
Nov 10
Full

Hourly Weather History & Observations

Time (CDT) Temp. Windchill Dew Point Humidity Pressure Visibility Wind Dir Wind Speed Gust Speed Precip Events Conditions
12:54 AM 33.1 °F 30.0 °F 30.9 °F 92% 29.98 in 10.0 mi NW 3.5 mph - N/A   Clear
2:54 AM 33.1 °F 28.7 °F 32.0 °F 96% 29.98 in 10.0 mi NNW 4.6 mph - N/A   Overcast
3:26 AM 35.6 °F 30.7 °F 33.8 °F 93% 29.95 in 10.0 mi NNW 5.8 mph - N/A   Overcast
3:50 AM 35.6 °F 29.9 °F 33.8 °F 93% 29.95 in 10.0 mi North 6.9 mph - 0.00 in Rain Light Rain
3:54 AM 36.0 °F 31.1 °F 34.0 °F 93% 29.98 in 10.0 mi NNW 5.8 mph - 0.00 in Rain Light Rain
5:01 AM 35.6 °F 28.0 °F 33.8 °F 93% 29.95 in 10.0 mi NNW 10.4 mph - 0.00 in Rain Light Rain
5:54 AM 36.0 °F 29.6 °F 34.0 °F 93% 29.99 in 10.0 mi NNW 8.1 mph - 0.00 in   Overcast
6:54 AM 37.0 °F 31.0 °F 34.0 °F 89% 30.00 in 10.0 mi North 8.1 mph - N/A   Overcast
7:54 AM 37.0 °F 30.4 °F 34.0 °F 89% 30.01 in 10.0 mi North 9.2 mph - 0.00 in   Overcast
8:54 AM 39.0 °F 32.8 °F 36.0 °F 89% 30.01 in 9.0 mi North 9.2 mph - 0.00 in Rain Light Rain
9:11 AM 39.2 °F 33.6 °F 35.6 °F 87% 29.98 in 8.0 mi North 8.1 mph - 0.00 in Rain Light Rain
9:21 AM 39.2 °F 34.2 °F 35.6 °F 87% 29.98 in 7.0 mi NNW 6.9 mph - 0.00 in Rain Light Rain
9:35 AM 39.2 °F 35.0 °F 37.4 °F 93% 29.98 in 10.0 mi NNW 5.8 mph - 0.00 in   Overcast
9:54 AM 42.1 °F 38.4 °F 37.9 °F 85% 30.02 in 10.0 mi North 5.8 mph - 0.00 in   Mostly Cloudy
10:10 AM 42.8 °F 36.6 °F 37.4 °F 81% 29.98 in 10.0 mi North 11.5 mph - N/A   Mostly Cloudy
10:31 AM 44.6 °F 37.8 °F 35.6 °F 71% 29.98 in 10.0 mi NNE 15.0 mph 23.0 mph N/A   Mostly Cloudy
11:19 AM 44.6 °F 39.7 °F 37.4 °F 76% 29.98 in 10.0 mi NNE 9.2 mph 16.1 mph 0.00 in   Overcast
11:54 AM 46.0 °F 40.6 °F 37.0 °F 71% 30.02 in 10.0 mi North 11.5 mph 20.7 mph 0.00 in Rain Light Rain
12:29 PM 44.6 °F 38.1 °F 37.4 °F 76% 29.97 in 10.0 mi North 13.8 mph 20.7 mph 0.00 in Rain Light Rain
12:38 PM 44.6 °F 38.4 °F 37.4 °F 76% 29.98 in 4.0 mi NNE 12.7 mph 23.0 mph 0.00 in Rain Light Rain
12:54 PM 45.0 °F 39.3 °F 39.9 °F 82% 30.00 in 10.0 mi North 11.5 mph 17.3 mph 0.00 in   Overcast
1:10 PM 46.4 °F 39.8 °F 39.2 °F 76% 29.96 in 10.0 mi North 16.1 mph 20.7 mph 0.00 in Rain Light Rain
1:54 PM 46.0 °F 39.6 °F 37.9 °F 73% 29.98 in 10.0 mi NNE 15.0 mph 21.9 mph 0.00 in   Overcast
2:54 PM 46.9 °F - 35.1 °F 63% 29.97 in 10.0 mi NNE 15.0 mph - N/A   Mostly Cloudy
3:54 PM 48.0 °F - 35.1 °F 61% 29.96 in 10.0 mi North 17.3 mph 24.2 mph N/A   Mostly Cloudy
4:54 PM 43.0 °F 36.4 °F 37.9 °F 82% 29.97 in 5.0 mi NNE 12.7 mph 20.7 mph 0.00 in Rain Light Rain
5:21 PM 42.8 °F 38.0 °F 37.4 °F 81% 29.93 in 10.0 mi NNE 8.1 mph 17.3 mph 0.00 in   Overcast
5:54 PM 42.1 °F 34.5 °F 37.0 °F 82% 29.97 in 10.0 mi North 15.0 mph 20.7 mph 0.00 in   Overcast
6:54 PM 41.0 °F 33.9 °F 35.1 °F 79% 29.98 in 10.0 mi North 12.7 mph 21.9 mph N/A   Overcast
7:54 PM 41.0 °F 33.9 °F 34.0 °F 76% 29.97 in 10.0 mi North 12.7 mph 21.9 mph N/A   Overcast
8:54 PM 41.0 °F 34.3 °F 34.0 °F 76% 29.94 in 10.0 mi North 11.5 mph 23.0 mph N/A   Overcast
9:12 PM 41.0 °F 32.8 °F 33.8 °F 76% 29.90 in 10.0 mi North 16.1 mph 23.0 mph N/A   Overcast
9:27 PM 41.0 °F 31.6 °F 33.8 °F 76% 29.89 in 10.0 mi North 20.7 mph 26.5 mph N/A   Overcast
9:54 PM 41.0 °F 34.3 °F 33.1 °F 73% 29.90 in 10.0 mi North 11.5 mph 21.9 mph N/A   Overcast
10:45 PM 41.0 °F 33.9 °F 33.8 °F 76% 29.85 in 10.0 mi North 12.7 mph 21.9 mph N/A   Overcast
10:54 PM 42.1 °F 34.9 °F 34.0 °F 73% 29.88 in 10.0 mi North 13.8 mph 20.7 mph N/A   Overcast
11:06 PM 42.8 °F 36.2 °F 33.8 °F 70% 29.84 in 10.0 mi North 12.7 mph - N/A   Overcast
11:54 PM 43.0 °F 35.1 °F 32.0 °F 65% 29.86 in 10.0 mi NNE 17.3 mph 29.9 mph N/A   Overcast